Weather History for KFIT - April, 2013

Change the Weather History Date:

Friday, April 5, 2013

  Actual Average (KORH) Record (KORH)
Temperature  
Mean Temperature 49 °F 42 °F  
Max Temperature 61 °F 51 °F 80 °F (1928)
Min Temperature 37 °F 33 °F 12 °F (1995)
Degree Days  
Heating Degree Days 16 23  
Month to date heating degree days 119  
Since 1 July heating degree days 5895  
Cooling Degree Days 0 0  
Month to date cooling degree days 0  
Year to date cooling degree days 0  
Moisture  
Dew Point 23 °F    
Average Humidity 43    
Maximum Humidity 68    
Minimum Humidity 18    
Precipitation  
Precipitation 0.00 in 0.14 in 2.27 in (1984)
Month to date precipitation 0.72  
Year to date precipitation 11.65  
Sea Level Pressure  
Sea Level Pressure 29.85 in    
Wind  
Wind Speed 9 mph (WSW)    
Max Wind Speed 18 mph    
Max Gust Speed 28 mph    
Visibility 10 miles    
Events      
T = Trace of Precipitation, MM = Missing Value Source: NWS Daily Summary

Daily Weather History Graph

Daily Weather History Graph

Search for Another Location

Airport or City:

Trip Planner

Search our weather history database for the weather conditions in past years. The results will help you decide how hot, cold, wet, or windy it might be!

Date:

Astronomy

Apr. 05, 2013 Rise Set
Actual Time 6:22 AM EDT 7:17 PM EDT
Civil Twilight 5:53 AM EDT 7:46 PM EDT
Nautical Twilight 5:19 AM EDT 8:20 PM EDT
Astronomical Twilight 4:43 AM EDT 8:56 PM EDT
Moon 3:33 AM EDT (4/5) 2:33 PM EDT (4/5)
Length of Visible Light 13h 53m
Length of Day
12h 55m
Waning Crescent, 24% of the Moon is Illuminated
Apr 5
Waning Crescent
Apr 10
New
Apr 18
First Quarter
Apr 25
Full
May 2
Last Quarter

Hourly Weather History & Observations

Time (EDT) Temp. Windchill Dew Point Humidity Pressure Visibility Wind Dir Wind Speed Gust Speed Precip Events Conditions
12:52 AM 39.9 °F 34.5 °F 24.1 °F 53% 30.03 in 10.0 mi SSE 8.1 mph - N/A   Clear
1:52 AM 39.0 °F 33.4 °F 26.1 °F 60% 30.01 in 10.0 mi SSE 8.1 mph - N/A   Clear
2:52 AM 39.0 °F 32.3 °F 27.0 °F 62% 29.98 in 10.0 mi SE 10.4 mph - N/A   Clear
3:52 AM 37.9 °F 32.1 °F 28.0 °F 68% 29.96 in 10.0 mi SSE 8.1 mph - N/A   Clear
4:52 AM 37.9 °F 32.7 °F 27.0 °F 65% 29.94 in 10.0 mi SSE 6.9 mph - N/A   Clear
5:52 AM 37.9 °F 32.7 °F 25.0 °F 60% 29.92 in 10.0 mi SSE 6.9 mph - N/A   Clear
6:52 AM 39.0 °F 33.4 °F 25.0 °F 57% 29.93 in 10.0 mi SSE 8.1 mph - N/A   Clear
7:52 AM 39.9 °F 32.9 °F 24.1 °F 53% 29.92 in 10.0 mi South 11.5 mph - N/A   Clear
8:52 AM 42.1 °F 40.2 °F 23.0 °F 47% 29.90 in 10.0 mi Variable 3.5 mph - N/A   Scattered Clouds
9:52 AM 46.0 °F 44.8 °F 24.1 °F 42% 29.88 in 10.0 mi SSE 3.5 mph - N/A   Partly Cloudy
10:52 AM 50.0 °F - 21.9 °F 33% 29.84 in 10.0 mi West 8.1 mph - N/A   Clear
12:52 PM 57.0 °F - 17.1 °F 21% 29.76 in 10.0 mi West 9.2 mph - N/A   Clear
1:52 PM 57.9 °F - 14.0 °F 18% 29.71 in 10.0 mi Variable 4.6 mph - N/A   Clear
2:52 PM 61.0 °F - 21.0 °F 21% 29.67 in 10.0 mi NW 16.1 mph 23.0 mph N/A   Scattered Clouds
3:52 PM 59.0 °F - 19.9 °F 22% 29.67 in 10.0 mi NW 15.0 mph 23.0 mph N/A   Clear
4:52 PM 57.0 °F - 19.0 °F 23% 29.67 in 10.0 mi NNW 18.4 mph 23.0 mph N/A   Clear
5:52 PM 55.9 °F - 17.1 °F 22% 29.69 in 10.0 mi NW 11.5 mph 24.2 mph N/A   Clear
6:52 PM 52.0 °F - 19.0 °F 27% 29.73 in 10.0 mi WNW 13.8 mph 20.7 mph N/A   Clear
7:52 PM 50.0 °F - 21.9 °F 33% 29.77 in 10.0 mi NW 15.0 mph 24.2 mph N/A   Mostly Cloudy
8:52 PM 46.0 °F 39.6 °F 21.0 °F 37% 29.83 in 10.0 mi NNW 15.0 mph - N/A   Clear
9:52 PM 43.0 °F 35.4 °F 24.1 °F 47% 29.87 in 10.0 mi NW 16.1 mph 27.6 mph N/A   Clear
10:52 PM 39.9 °F 32.9 °F 26.1 °F 58% 29.89 in 10.0 mi WNW 11.5 mph - N/A   Clear
11:52 PM 37.9 °F 31.5 °F 23.0 °F 55% 29.91 in 10.0 mi NW 9.2 mph - N/A   Clear